Wind_Speed
19 19 19 20 20 20 19 18 18 16 15 15 14 13 11 9 7 4 3 1 6 10 18 24 19 25 15 21 24 26 27 27 26 29 25 18 12 12 14 13 7 2 6 10 14
22 21 21 21 20 20 19 18 17 17 16 15 15 14 12 12 10 6 2 3 1 8 12 20 12 10 7 12 11 18 16 20 23 27 27 21 15 12 12 13 12 4 2 8 15
23 22 22 20 17 15 14 14 16 16 16 16 15 14 13 14 11 6 5 5 3 4 8 11 10 15 12 9 8 18 3 15 19 24 25 23 19 15 14 14 15 13 2 5 6
23 21 20 16 15 14 13 13 12 13 15 15 16 15 14 14 10 9 8 7 6 1 7 3 13 12 13 18 20 25 24 23 21 25 24 25 24 21 18 18 17 21 10 6 5
20 19 16 14 14 14 14 13 14 14 13 12 15 15 13 13 9 9 10 9 8 1 5 1 12 7 7 15 28 31 33 23 22 20 19 22 26 23 20 20 19 21 20 15 14
18 15 14 13 14 14 15 14 12 11 12 11 12 14 13 11 9 9 9 9 11 3 3 3 8 12 15 20 32 34 31 26 30 22 20 20 24 22 22 20 21 21 22 21 15
16 13 12 12 15 15 15 15 10 5 5 10 12 15 13 7 5 11 11 12 11 6 4 5 6 11 13 17 29 27 31 34 27 19 18 17 20 22 19 19 21 22 23 20 20
13 10 11 12 14 14 14 14 13 6 3 9 12 13 8 8 13 11 9 12 11 8 7 8 7 14 11 13 20 20 25 23 19 16 20 12 21 23 20 19 21 23 22 24 17
11 9 9 11 13 13 12 13 14 11 5 8 11 12 12 11 9 4 5 9 8 8 9 11 8 11 8 8 14 17 17 16 16 16 20 25 16 19 16 20 19 20 22 23 20
10 9 9 9 11 11 9 11 14 12 9 8 9 10 11 12 7 6 5 5 6 5 10 9 9 11 7 2 3 16 16 9 13 9 11 16 19 14 15 17 19 21 19 21 21
10 9 8 8 9 10 11 12 13 12 11 11 9 8 9 7 8 7 6 7 8 9 12 12 13 9 3 1 1 9 6 6 8 10 11 10 10 17 15 11 12 13 19 21 20
8 8 7 6 6 8 8 14 11 12 12 9 7 7 8 6 5 5 6 7 6 6 14 20 19 15 15 5 5 4 4 2 1 5 6 6 5 10 13 9 4 7 13 16 17
7 6 5 5 4 7 10 11 14 13 12 14 12 9 5 4 5 6 4 5 6 5 12 24 21 20 19 13 12 7 8 7 8 5 5 7 7 7 17 12 5 3 9 13 12
5 4 3 3 2 7 9 12 20 18 23 21 15 14 12 8 8 5 7 11 9 10 9 8 16 14 17 11 6 3 14 16 13 7 8 8 2 7 8 9 8 11 9 9 11
2 2 3 4 6 7 9 12 15 17 28 25 24 17 13 16 16 14 21 27 21 16 10 6 8 6 5 2 2 4 10 2 5 3 4 12 7 4 9 8 9 9 16 13 8
1 2 3 3 7 9 11 15 17 24 25 26 26 25 17 17 22 28 22 19 17 13 7 5 11 12 13 8 7 11 10 8 4 5 2 3 3 8 10 5 10 20 7 4 12
2 3 3 3 7 4 6 10 14 17 18 16 16 17 19 14 19 21 17 16 13 10 11 12 11 15 14 14 6 19 13 10 9 6 6 1 1 4 3 6 20 9 8 11 8
2 2 3 2 5 7 4 1 2 12 14 12 9 5 11 15 12 10 9 12 9 7 8 2 4 8 6 7 7 8 18 10 4 4 4 4 5 2 3 3 8 5 13 13 14
5 4 5 5 8 7 4 3 5 9 8 7 0 3 7 10 9 4 0 2 7 6 3 6 3 3 2 1 2 5 6 11 5 6 4 6 7 4 4 4 3 6 12 15 20
8 7 7 9 9 9 8 6 9 11 9 9 10 7 2 7 3 3 5 6 2 4 8 9 12 6 9 6 4 3 4 10 10 6 5 8 8 6 4 5 2 7 11 16 21
12 10 9 9 10 10 10 7 5 12 10 8 12 13 11 10 10 9 9 11 11 13 11 7 6 15 15 13 12 13 12 9 13 15 8 8 4 1 3 2 6 11 17 17 15
16 14 12 13 13 13 11 9 8 9 13 8 9 12 16 17 15 14 14 16 21 23 20 11 10 13 21 19 17 17 18 14 8 14 15 10 7 4 8 10 17 22 25 22 19
19 18 16 16 17 14 13 14 10 11 14 10 11 14 13 18 21 20 21 19 21 19 15 11 7 11 12 22 26 24 24 20 17 14 19 16 15 15 18 21 23 27 31 27 23
22 21 20 20 18 17 16 16 13 10 14 10 8 10 10 13 16 21 21 21 20 17 12 10 9 12 13 16 18 24 26 22 20 16 21 19 17 20 25 29 33 34 32 25 24
24 25 25 24 23 23 22 20 18 17 17 15 13 9 10 10 13 14 15 17 20 17 12 10 12 12 12 16 18 19 22 25 23 22 19 19 22 26 31 32 33 32 34 34 34
26 27 29 28 28 28 27 25 23 24 22 22 19 16 13 11 15 16 15 13 16 16 13 12 13 18 16 17 20 23 23 25 31 30 20 18 20 19 22 29 33 32 30 23 22
30 31 31 32 32 32 31 30 29 27 29 25 23 23 21 19 17 17 19 17 16 17 17 16 16 17 17 19 21 19 24 26 24 24 21 20 20 18 18 15 15 19 20 22 22
Wind_Direction
327 320 312 307 301 294 288 281 275 269 261 259 256 255 250 253 264 282 59 43 63 52 52 76 94 129 80 89 89 89 82 83 79 80 77 69 65 61 57 54 46 139 196 199 220
326 321 316 312 306 298 289 279 273 265 257 253 253 250 245 244 252 261 180 267 54 72 75 65 91 110 76 75 94 63 74 83 80 81 78 77 77 76 80 74 55 62 187 226 224
327 324 320 318 315 312 300 286 271 263 255 246 246 247 243 240 245 252 242 271 288 97 77 69 43 17 25 39 64 12 56 95 77 72 71 75 90 84 74 74 56 54 64 331 214
329 327 326 328 325 322 314 302 290 269 256 247 238 241 239 243 237 237 239 259 277 349 93 61 56 30 30 29 30 26 19 111 89 72 69 68 75 70 65 67 62 53 56 60 89
330 330 334 337 340 334 325 308 287 270 256 244 230 232 233 239 228 221 218 228 252 273 101 156 57 43 56 28 41 41 33 124 93 70 68 69 71 71 58 59 65 65 59 69 78
335 338 342 348 352 346 342 333 313 280 251 234 219 217 223 227 228 217 211 224 239 215 128 144 91 43 42 39 49 64 58 65 84 73 72 68 65 65 65 61 61 68 68 63 85
336 342 350 357 358 354 354 355 350 335 224 209 201 204 212 222 159 189 198 211 227 220 155 140 118 78 68 59 65 63 47 44 42 67 68 74 69 67 66 71 74 69 71 68 66
338 346 357 2 2 2 8 20 26 33 143 175 183 192 174 168 186 203 202 205 211 211 163 170 126 77 62 69 72 57 57 32 25 24 1 97 72 63 68 70 72 76 75 74 75
344 347 357 3 4 8 18 33 39 46 84 153 170 175 164 181 189 175 185 202 211 197 195 174 127 98 54 70 83 82 72 47 7 4 19 36 55 64 65 70 73 80 80 83 79
350 351 355 360 8 11 21 44 54 58 73 117 143 161 168 183 186 170 172 193 199 182 194 197 142 84 65 7 70 93 87 50 351 341 27 41 69 97 69 63 70 73 78 86 89
353 355 354 356 12 19 24 38 57 65 86 114 125 150 150 168 177 162 155 152 172 179 177 188 164 119 226 252 17 104 79 42 9 353 31 36 57 79 46 54 77 83 80 72 80
349 356 354 2 28 39 46 52 59 67 80 92 96 125 151 152 144 135 162 159 161 158 154 163 155 194 209 189 217 167 169 160 325 2 15 2 15 82 68 41 44 82 91 86 80
340 347 2 8 42 72 69 64 61 78 91 86 87 99 136 161 174 142 153 147 128 152 158 163 179 205 225 243 271 323 220 229 237 261 301 315 59 84 74 67 124 108 83 85 79
347 360 18 44 54 89 110 94 75 73 82 77 77 87 83 98 103 111 131 109 84 65 108 171 210 224 239 246 234 276 246 245 262 251 280 290 78 104 84 92 85 113 108 95 88
9 9 32 58 88 106 112 107 93 84 83 78 71 74 94 117 113 120 112 97 94 99 119 119 87 64 80 161 161 183 233 226 227 239 86 68 91 98 83 87 152 128 99 84 68
72 62 49 84 96 104 104 113 102 96 84 86 87 80 82 97 111 115 119 115 114 97 91 72 119 99 66 65 149 167 143 112 222 186 138 335 24 50 73 91 149 183 206 97 82
102 93 85 86 123 138 112 110 107 100 110 94 83 73 75 103 121 134 134 133 120 114 104 108 97 84 55 32 184 179 163 136 141 142 161 77 220 15 330 99 158 175 357 5 38
223 158 115 120 151 143 123 9 31 132 106 109 99 101 90 102 95 91 137 136 123 79 102 129 55 115 87 64 63 212 206 191 211 206 123 105 148 236 304 49 158 284 342 354 346
234 208 182 188 181 197 236 249 254 167 155 141 359 304 126 119 130 113 354 213 166 97 24 323 247 188 283 291 282 301 222 222 256 256 228 161 166 200 316 14 20 314 334 341 335
231 223 210 214 219 229 242 236 209 212 195 174 185 246 175 157 188 252 288 309 287 314 294 275 228 245 256 263 310 159 174 195 231 250 185 166 211 247 308 33 316 294 310 327 328
229 233 224 220 235 244 253 266 260 238 244 203 204 221 255 237 218 244 281 291 290 292 321 307 269 226 253 269 268 272 253 212 227 238 232 220 242 220 294 342 274 273 296 325 20
228 230 231 223 235 256 272 287 283 247 233 238 223 238 240 262 260 255 266 272 281 285 294 311 282 253 228 257 268 268 276 285 269 227 237 245 269 265 254 250 253 279 300 323 332
230 233 235 233 240 260 269 272 274 288 250 233 239 241 241 243 246 260 270 277 278 292 311 311 281 260 248 247 251 261 276 283 288 253 231 256 260 256 252 265 281 294 306 322 329
233 233 234 238 244 252 262 274 272 263 268 268 265 262 273 260 256 259 268 276 284 291 313 275 269 262 256 257 265 259 267 278 294 273 237 247 265 272 275 279 284 291 301 310 324
236 239 236 233 237 240 242 251 260 264 272 281 286 299 295 271 269 275 275 278 281 285 279 257 254 249 253 276 279 274 273 275 282 282 271 258 253 262 270 273 281 291 295 304 315
240 240 245 242 239 244 247 251 252 264 271 279 287 294 292 282 268 271 277 281 279 282 273 263 246 254 260 261 264 265 267 261 262 269 271 272 274 271 269 267 271 281 291 302 305
246 243 243 249 250 248 249 251 251 254 263 268 275 281 289 293 287 274 267 267 275 289 293 278 270 253 253 265 269 271 265 263 265 270 274 271 276 270 271 277 292 297 293 296 300
Height
5916 5912 5909 5906 5903 5900 5898 5897 5896 5896 5896 5896 5896 5895 5896 5899 5900 5901 5902 5902 5903 5904 5903 5898 5897 5895 5896 5895 5892 5890 5888 5885 5882 5878 5879 5881 5882 5880 5878 5877 5876 5875 5876 5878 5878
5912 5909 5905 5902 5898 5896 5894 5892 5892 5891 5892 5893 5893 5893 5895 5896 5899 5901 5903 5902 5903 5905 5905 5901 5899 5901 5899 5898 5897 5898 5894 5888 5886 5882 5879 5879 5881 5882 5880 5879 5877 5877 5876 5875 5875
5909 5905 5902 5898 5895 5892 5890 5888 5887 5887 5888 5889 5891 5891 5893 5894 5899 5901 5901 5901 5903 5904 5906 5903 5902 5902 5898 5901 5903 5900 5899 5891 5892 5888 5884 5884 5881 5883 5882 5879 5878 5877 5875 5873 5870
5907 5903 5899 5896 5893 5890 5888 5886 5884 5884 5885 5886 5888 5889 5891 5892 5898 5900 5901 5901 5902 5904 5906 5904 5905 5907 5904 5901 5902 5898 5892 5893 5893 5893 5892 5888 5885 5885 5885 5883 5879 5877 5875 5873 5869
5905 5901 5897 5895 5892 5889 5886 5883 5881 5881 5882 5883 5885 5887 5888 5890 5894 5897 5899 5900 5900 5903 5905 5903 5905 5905 5905 5904 5900 5897 5893 5893 5895 5896 5894 5892 5886 5885 5888 5886 5881 5880 5878 5875 5873
5903 5900 5897 5894 5891 5888 5884 5881 5878 5877 5877 5880 5882 5884 5886 5889 5891 5895 5898 5899 5899 5901 5903 5903 5905 5905 5905 5904 5899 5899 5900 5899 5898 5899 5899 5896 5892 5891 5890 5890 5887 5884 5884 5881 5878
5902 5900 5897 5894 5891 5888 5884 5880 5876 5874 5875 5877 5879 5881 5884 5888 5889 5892 5895 5897 5898 5900 5902 5903 5903 5904 5908 5907 5903 5903 5905 5904 5904 5902 5902 5900 5898 5896 5895 5893 5891 5889 5886 5887 5886
5902 5900 5897 5895 5891 5888 5885 5881 5877 5875 5874 5875 5877 5880 5885 5886 5887 5890 5893 5895 5896 5898 5900 5900 5902 5905 5906 5908 5907 5906 5905 5904 5908 5906 5902 5903 5903 5902 5901 5899 5894 5892 5892 5890 5892
5901 5900 5898 5895 5892 5889 5886 5882 5879 5877 5876 5876 5878 5880 5884 5885 5887 5889 5892 5894 5895 5898 5899 5901 5904 5906 5907 5909 5908 5908 5908 5908 5909 5908 5907 5908 5909 5907 5905 5903 5900 5896 5895 5894 5896
5901 5899 5898 5896 5893 5890 5887 5884 5881 5879 5879 5879 5880 5883 5884 5885 5886 5889 5891 5893 5895 5898 5900 5901 5903 5906 5909 5910 5910 5910 5909 5910 5910 5910 5910 5910 5910 5907 5908 5907 5905 5903 5901 5897 5898
5901 5900 5898 5896 5894 5892 5890 5887 5885 5883 5881 5882 5883 5883 5884 5886 5888 5889 5891 5894 5895 5897 5899 5901 5905 5908 5909 5909 5910 5911 5909 5909 5908 5911 5911 5912 5912 5911 5911 5907 5907 5907 5905 5905 5901
5902 5900 5898 5896 5895 5893 5892 5889 5888 5887 5885 5885 5885 5885 5886 5887 5889 5890 5892 5894 5896 5897 5899 5903 5906 5907 5907 5907 5907 5908 5908 5908 5908 5910 5911 5911 5912 5911 5911 5909 5907 5908 5906 5906 5906
5901 5900 5898 5897 5896 5895 5894 5892 5890 5890 5889 5889 5888 5888 5888 5890 5890 5891 5893 5894 5895 5897 5900 5902 5905 5906 5906 5907 5906 5907 5907 5907 5907 5906 5908 5909 5911 5912 5909 5910 5909 5910 5910 5907 5908
5901 5900 5898 5898 5898 5896 5896 5895 5893 5894 5892 5892 5891 5891 5891 5892 5892 5893 5894 5895 5897 5899 5901 5904 5905 5907 5906 5905 5906 5906 5905 5905 5905 5906 5905 5906 5909 5910 5910 5910 5911 5912 5910 5909 5909
5901 5900 5899 5899 5898 5898 5898 5896 5896 5898 5894 5898 5896 5896 5894 5896 5896 5895 5896 5897 5900 5904 5907 5907 5906 5904 5903 5903 5903 5904 5905 5906 5905 5904 5905 5906 5907 5908 5908 5909 5911 5913 5911 5911 5910
5901 5900 5900 5900 5899 5899 5898 5898 5898 5899 5898 5900 5901 5901 5901 5899 5898 5898 5901 5902 5903 5904 5905 5905 5904 5904 5903 5903 5902 5904 5906 5906 5905 5906 5906 5905 5907 5908 5907 5909 5909 5912 5912 5912 5911
5901 5901 5901 5901 5900 5900 5899 5900 5900 5897 5899 5901 5900 5901 5903 5902 5902 5901 5902 5903 5904 5906 5906 5905 5904 5903 5903 5903 5901 5904 5905 5906 5906 5906 5906 5905 5905 5905 5906 5907 5908 5911 5910 5909 5909
5901 5901 5901 5901 5901 5900 5900 5900 5899 5899 5898 5899 5900 5900 5902 5903 5903 5903 5903 5904 5905 5906 5905 5905 5905 5903 5903 5901 5902 5902 5904 5905 5905 5905 5905 5904 5904 5905 5904 5906 5906 5906 5905 5904 5904
5900 5900 5901 5901 5900 5900 5900 5900 5899 5898 5898 5899 5899 5900 5901 5901 5902 5902 5902 5902 5904 5904 5905 5904 5904 5904 5902 5901 5901 5901 5902 5903 5903 5903 5903 5903 5904 5903 5903 5904 5905 5905 5904 5902 5902
5898 5899 5899 5899 5899 5899 5899 5899 5898 5897 5896 5896 5898 5899 5899 5899 5899 5899 5900 5901 5902 5902 5900 5900 5902 5902 5901 5901 5901 5900 5900 5900 5900 5900 5900 5901 5902 5902 5902 5904 5904 5903 5902 5902 5900
5895 5897 5897 5897 5897 5897 5897 5898 5898 5898 5897 5895 5895 5897 5898 5898 5898 5898 5898 5899 5898 5898 5898 5898 5899 5901 5899 5898 5898 5897 5896 5896 5897 5897 5898 5898 5899 5899 5899 5899 5899 5899 5898 5899 5897
5892 5894 5894 5894 5895 5894 5895 5895 5896 5896 5896 5894 5894 5895 5896 5896 5896 5896 5896 5896 5895 5895 5895 5895 5895 5895 5896 5894 5894 5894 5894 5894 5895 5895 5895 5896 5897 5896 5896 5896 5894 5893 5893 5894 5894
5888 5890 5891 5892 5891 5892 5893 5893 5892 5892 5893 5892 5892 5891 5892 5893 5893 5893 5893 5894 5892 5891 5892 5892 5892 5891 5891 5892 5891 5890 5890 5891 5892 5892 5892 5893 5894 5893 5892 5892 5891 5890 5889 5890 5889
5883 5885 5886 5887 5888 5889 5889 5889 5889 5889 5889 5890 5890 5891 5892 5891 5890 5889 5890 5890 5890 5889 5890 5889 5888 5888 5888 5888 5887 5887 5887 5887 5887 5889 5890 5891 5890 5888 5888 5888 5886 5886 5885 5886 5886
5877 5879 5880 5882 5883 5883 5885 5885 5885 5885 5885 5886 5887 5889 5889 5888 5887 5887 5887 5886 5884 5885 5886 5885 5884 5884 5884 5884 5884 5884 5884 5884 5883 5883 5885 5886 5886 5886 5885 5884 5882 5882 5881 5881 5879
5871 5872 5873 5875 5877 5878 5879 5880 5881 5880 5881 5880 5880 5882 5883 5884 5883 5883 5882 5882 5880 5880 5880 5880 5880 5879 5879 5879 5878 5878 5879 5879 5878 5877 5879 5879 5880 5879 5879 5880 5880 5879 5878 5875 5873
5863 5865 5866 5867 5868 5870 5871 5873 5874 5875 5874 5875 5876 5875 5875 5877 5878 5878 5877 5877 5876 5875 5874 5874 5874 5874 5875 5874 5874 5874 5870 5870 5872 5873 5875 5875 5876 5874 5873 5875 5874 5871 5870 5869 5867